Home   Weather   Horgen   Past weeks

Flag for Switzerland Past Weather in Horgen, Zurich, Switzerland — Yesterday and Last 2 Weeks

Now
67 °F

Mild.


Feels Like: 67 °F
Forecast: 57 / 78 °F
Wind: 1 mph from North

Location: Zuerich-Fluntern

Current Time: Aug 17, 2017 at 12:07:05 am

Latest Report: Aug 16, 2017 at 11:00 pm


Visibility: N/A

Pressure: 30.11 "Hg

Humidity: 77%

Dew Point: 60 °F

Location of HorgenLocation

Past Weather in Horgen — Graph

°F

Horgen Temperature Yesterday

Maximum temperature yesterday: 79 °F (at 4:00 pm)
Minimum temperature yesterday: 61 °F (at 4:00 am)
Average temperature yesterday: 69 °F

High & Low Weather Summary for the Past Weeks

 TemperatureHumidityPressure
High89 °F (Aug 3, 5:00 pm)97% (Aug 10, 1:00 am)30.20 "Hg (Aug 10, 1:00 am)
Low51 °F (Aug 11, 12:00 am)38% (Aug 15, 5:00 pm)29.84 "Hg (Aug 8, 7:00 am)
Average66 °F76%30.06 "Hg
* Reported Aug 1 10:00 pm — Aug 16 10:00 pm, Horgen. Weather by CustomWeather, © 2017

Note: Actual official high and low records may vary slightly from our data, if they occured in-between our weather recording intervals... More about our weather records

Advertising

Horgen Weather History for the Previous 24 Hours

Scroll right to see more
 ConditionsComfort  
Time TempWeatherWind HumidityBarometerVisibility
10:00 pm
Wed, Aug 16
68 °FMild.3 mph76%30.11 "HgN/A
9:00 pm71 °FMild.5 mph72%30.10 "HgN/A
8:00 pm73 °FOvercast.3 mph66%30.08 "HgN/A
7:00 pm75 °FMild.3 mph59%30.07 "HgN/A
6:00 pm76 °FMild.2 mph58%30.07 "HgN/A
5:00 pm77 °FWarm.2 mph53%30.06 "HgN/A
4:00 pm79 °FWarm.3 mph49%30.06 "HgN/A
3:00 pm78 °FWarm.2 mph51%30.07 "HgN/A
2:00 pm77 °FWarm.3 mph56%30.09 "HgN/A
1:00 pm77 °FMild.3 mph63%30.10 "HgN/A
12:00 pm74 °FMild.2 mph60%30.13 "HgN/A
11:00 am70 °FMild.2 mph76%30.15 "HgN/A
10:00 am66 °FMild.2 mph87%30.17 "HgN/A
9:00 am64 °FMild.2 mph91%30.19 "HgN/A
8:00 am63 °FMild.1 mph95%30.18 "HgN/A
7:00 am62 °FCool.No wind95%30.18 "HgN/A
6:00 am62 °FCool.2 mph95%30.18 "HgN/A
5:00 am62 °FCool.2 mph95%30.19 "HgN/A
4:00 am61 °FCool.3 mph95%30.19 "HgN/A
3:00 am62 °FCool.5 mph93%30.19 "HgN/A
2:00 am62 °FCool.2 mph93%30.19 "HgN/A
1:00 am64 °FMild.7 mph85%30.18 "HgN/A
12:00 am69 °FMild.2 mph73%30.10 "HgN/A
Weather by CustomWeather, © 2017

See weather overviewHow to use our weather pages